Regional Weather Roundup
Issued by NWS

Home | Current Version | Previous Version | Text Only | Print | Product List | Glossary On
Versions: 1 2 3 4 5 6 7 8 9 10 11 12 13 14 15 16 17 18 19 20 21 22 23 24 25 26 27 28 29 30 31 32 33 34 35 36 37 38 39 40 41 42 43 44 45 46 47 48 49
000
ASUS46 KSEW 041510
RWRWA

WASHINGTON REGIONAL WEATHER ROUNDUP
NATIONAL WEATHER SERVICE SEATTLE WA
800 AM PDT FRI SEP 04 2015

NOTE:"FAIR" INDICATES FEW OR NO CLOUDS BELOW 12,000 FEET WITH NO
SIGNIFICANT WEATHER AND/OR OBSTRUCTIONS TO VISIBILITY.

WAZ505-507>509-041600-
SEATTLE, TACOMA, EVERETT, AND VICINITY

CITY           SKY/WX    TMP DP  RH WIND       PRES   REMARKS
EVERETT        CLOUDY    49  46  90 N5        30.02R
BOEING FIELD   PTSUNNY   55  46  71 CALM      30.02R
RENTON         CLOUDY    52  48  86 CALM      30.02R
SEATAC AIRPORT CLOUDY    52  48  86 N8        30.02R
JBLM-MCCHORD   CLOUDY    53  50  89 N5        30.01R
PUYALLUP       CLOUDY    52  52 100 CALM      30.01R
BREMERTON      CLOUDY    48  46  93 N9        30.04S
JBLM-FT LEWIS  CLOUDY    49  49  99 SE5       30.00S
TACOMA NARROWS CLOUDY    52  49  89 N6        30.02R
$$

WAZ001-503-506-510-514-515-041600-
NORTH INTERIOR

CITY           SKY/WX    TMP DP  RH WIND       PRES   REMARKS
BELLINGHAM     MOSUNNY   47  46  97 CALM      30.02S
FRIDAY HARBOR  MOSUNNY   51  50  96 CALM      30.04S
EASTSOUND      CLOUDY    52  52 100 CALM      30.02R
PORT ANGELES   CLOUDY    47  44  90 SW8       30.05R
PORT TOWNSEND  CLOUDY    50  50 100 W7        30.03S
NAS WHIDBEY    PTSUNNY   50  49  96 CALM      30.07R
ARLINGTON      PTSUNNY   46  43  87 CALM      30.03S
BURLINGTON     CLOUDY    48  48 100 NE3       30.03S
$$

WAZ020-022-039-040-504-511-512-041600-
SOUTHWEST INTERIOR

CITY           SKY/WX    TMP DP  RH WIND       PRES   REMARKS
SHELTON        FOG       44  43  96 CALM      30.00R VSB 1/4
OLYMPIA        PTSUNNY   51  48  89 N3        30.01S
CHEHALIS       CLOUDY    50  50 100 CALM      30.01S FOG
KELSO          NOT AVBL
VANCOUVER      CLOUDY    49  47  93 VRB3      30.00R
SCAPPOOSE, OR  CLOUDY    49  48  97 NW5       30.00R
PORTLAND, OR   FOG       50  49  96 NW8       30.00R VSB 1
$$

WAZ021-516-517-041600-
WASHINGTON COAST

CITY           SKY/WX    TMP DP  RH WIND       PRES   REMARKS
FORKS          SUNNY     46  45  96 E5        30.01S
HOQUIAM        MOSUNNY   47  44  90 NE5       30.02R FOG
ASTORIA, OR    FOG       50  50 100 SE3       29.99S VSB<1/4
$$

WAZ019-023-024-040-518-519-041600-
CASCADE MOUNTAINS AND COLUMBIA GORGE

CITY           SKY/WX    TMP DP  RH WIND       PRES   REMARKS
TROUTDALE, OR  CLOUDY    51  45  79 SE3       29.99S
THE DALLES, OR MOSUNNY   49  42  77 E3        29.96R
$$

WAZ026-027-041>044-520-521-041600-
EAST SLOPES

CITY           SKY/WX    TMP DP  RH WIND       PRES   REMARKS
OMAK           MOSUNNY   52  37  56 N14       29.99R
WENATCHEE      CLOUDY    51  38  60 W8        29.97R
ELLENSBURG     MOSUNNY   46  37  71 CALM      29.95S
YAKIMA         PTSUNNY   50  38  63 W7        29.96R
$$

WAZ028-034-035-041600-
COLUMBIA BASIN

CITY           SKY/WX    TMP DP  RH WIND       PRES   REMARKS
EPHRATA        MOSUNNY   52  33  48 NE9       29.94R
MOSES LAKE     SUNNY     47  33  58 NE8       29.96R
PASCO          SUNNY     48  40  73 CALM      29.95R
HERMISTON, OR  MOSUNNY   49  38  65 E3        29.94R
$$

WAZ036>038-041600-
NORTHEAST WASHINGTON

CITY           SKY/WX    TMP DP  RH WIND       PRES   REMARKS
SPOKANE GEIGER MOSUNNY   46  35  65 N3        29.96S
SPOKANE FELTS  MOSUNNY   48  38  68 SW3       29.98S
FAIRCHILD AFB  SUNNY     48  37  65 NE8       29.96S
COEURDALENE,ID MOSUNNY   48  39  71 NE10      29.97S
DEER PARK      SUNNY     49  34  56 N10       29.97S
$$

WAZ029>033-041600-
SOUTHEAST WASHINGTON

CITY           SKY/WX    TMP DP  RH WIND       PRES   REMARKS
PULLMAN        SUNNY     47  41  80 CALM      29.96S
LEWISTON, ID   SUNNY     47  43  86 S3        29.96S
WALLA WALLA    SUNNY     54  39  57 E5        29.94R
PENDLETON, OR  SUNNY     47  31  53 S9        29.94R
$$



USA.gov is the U.S. government's official web portal to all federal, state and local government web resources and services.